Wind_Speed
76 76 77 77 78 79 80 81 82 83 84 85 86 88 90 92 94 95 96 97 97 98 98 98 99 99 98 97 96 95 95 94 93 92 91 90 89 88 87 86 87 87
77 79 80 81 82 83 84 84 85 85 85 85 85 85 85 86 87 89 91 93 94 95 96 97 98 99 100 101 100 100 98 97 96 96 94 93 92 91 90 89 88 87
83 84 86 87 88 89 89 89 89 89 90 90 89 89 88 88 87 87 87 87 88 89 90 91 92 94 96 99 100 101 101 101 99 98 97 96 96 94 93 92 91 90
87 89 90 91 92 93 93 93 92 91 91 91 90 91 91 91 91 91 90 89 88 87 87 87 87 88 89 91 94 97 99 100 100 100 99 98 98 97 96 95 94 93
91 92 92 92 92 92 91 90 88 87 87 86 86 87 87 88 89 90 91 92 91 91 90 89 88 87 86 86 87 89 91 94 97 98 98 98 98 98 98 98 97 96
92 91 90 89 87 85 83 81 80 79 79 78 78 78 79 81 82 84 86 88 90 91 92 92 92 91 89 88 86 86 86 87 89 92 93 95 96 96 97 98 97 97
90 89 86 83 80 77 75 74 73 73 72 72 71 71 72 74 75 77 79 81 83 85 88 90 91 92 92 92 90 89 88 87 86 87 87 89 90 92 93 95 96 96
85 84 81 78 76 73 72 71 70 70 70 69 69 69 70 71 72 72 73 74 76 77 79 82 85 87 89 91 91 91 91 90 89 88 87 86 86 87 88 90 91 93
79 78 77 76 74 73 72 71 70 69 69 69 68 69 70 70 70 70 70 70 71 73 74 75 77 80 82 84 87 89 90 91 91 91 90 88 87 86 86 86 87 88
75 75 75 74 73 72 71 70 69 69 68 68 68 68 69 69 69 68 67 68 69 70 70 71 73 74 76 78 80 82 84 86 88 90 90 90 89 88 88 87 86 85
72 72 72 72 71 71 70 69 68 68 67 67 67 67 67 68 68 67 66 66 67 67 67 68 69 71 72 73 75 77 78 80 82 85 87 88 89 89 90 89 88 86
70 70 69 68 68 67 67 66 66 66 65 65 65 65 66 66 66 66 65 65 66 65 65 66 66 67 68 70 72 73 74 75 76 78 81 83 85 87 89 90 90 89
66 65 65 64 63 63 62 62 62 62 62 62 62 62 63 63 63 63 63 63 63 64 63 63 64 64 65 67 68 70 71 72 73 74 75 77 79 82 86 88 89 90
61 60 59 59 58 58 57 57 57 57 58 58 58 59 59 60 60 60 60 60 61 61 61 61 62 62 62 64 65 67 68 69 70 71 72 73 74 76 79 82 85 88
55 54 53 53 53 52 52 52 53 54 55 55 56 57 58 58 59 59 60 60 60 60 60 60 60 60 61 61 62 64 66 67 68 69 70 70 70 71 73 75 78 82
49 49 48 49 49 49 50 51 52 53 54 55 57 58 59 59 60 61 61 61 61 61 61 61 61 60 60 61 61 62 63 64 65 66 68 68 68 69 69 71 72 75
45 46 47 48 49 50 51 52 53 54 55 56 58 59 60 61 62 63 64 64 64 63 63 63 62 62 62 62 62 62 63 63 63 64 65 66 67 67 68 68 69 71
45 46 47 48 49 50 51 52 53 54 55 57 58 59 61 62 63 64 64 65 65 65 64 64 63 63 63 63 63 64 64 65 64 64 64 64 65 65 66 66 67 68
47 47 48 49 50 50 51 52 52 53 54 55 56 58 59 60 61 62 63 63 64 63 63 62 62 62 62 62 62 63 64 65 65 65 64 64 64 65 65 65 66 66
47 48 48 49 49 49 49 50 50 51 52 53 54 55 56 57 58 59 60 60 60 60 59 59 58 58 58 58 58 59 61 62 63 63 63 63 63 63 64 64 65 65
48 48 48 48 47 47 46 47 48 48 49 50 51 52 52 53 54 54 53 53 54 54 53 52 52 53 53 53 53 54 56 58 58 58 58 57 58 59 59 61 62 63
47 47 46 46 46 45 45 45 46 46 47 47 48 48 48 47 47 46 45 44 44 45 44 44 45 46 47 47 48 49 51 51 51 51 51 51 51 52 53 55 57 58
46 45 44 44 44 45 44 44 44 44 44 44 43 42 42 41 40 39 38 37 36 36 37 37 38 40 41 41 42 44 45 45 44 44 45 45 46 47 49 51 52 53
44 43 43 43 43 43 43 42 42 41 40 40 39 38 37 36 34 32 32 31 30 30 31 31 32 34 34 34 36 38 38 38 38 39 40 41 43 45 46 47 48 49
43 43 42 42 41 41 41 40 39 37 37 37 36 35 33 31 30 27 27 26 25 25 25 26 26 27 27 28 29 30 29 29 30 31 32 34 36 39 41 43 43 44
42 42 41 40 39 38 38 37 35 35 35 34 33 32 30 29 27 25 23 23 22 21 21 21 21 21 21 22 23 22 22 24 25 26 26 27 28 30 32 33 34 36
Wind_Direction
286 285 284 283 282 281 280 279 277 276 275 273 272 270 269 268 267 266 265 265 264 264 263 263 262 261 261 260 259 258 258 257 257 257 256 256 255 254 253 253 253 253
288 288 287 286 285 284 282 281 279 278 276 275 273 272 271 269 268 267 266 265 264 263 263 263 262 262 261 261 260 259 258 258 257 256 256 256 255 254 254 253 252 252
291 290 289 288 287 286 285 283 281 279 278 276 274 272 271 270 269 268 267 266 265 264 263 262 262 262 261 261 260 260 259 258 257 257 256 255 255 255 254 253 252 251
293 292 291 290 289 287 286 285 283 282 280 278 276 274 272 270 269 268 267 266 265 264 263 262 261 261 260 260 260 260 259 259 258 257 256 255 254 254 254 253 253 252
293 292 291 290 289 288 287 286 284 283 281 280 278 276 274 272 270 269 267 266 265 264 263 263 262 261 260 259 259 259 259 259 258 257 257 256 255 254 253 253 252 252
294 293 292 291 289 288 287 286 285 283 282 281 279 278 276 274 272 270 268 267 265 264 263 263 262 261 260 259 258 258 258 258 258 258 257 256 256 255 253 252 251 251
295 294 293 292 290 289 288 287 285 284 283 282 280 279 277 275 274 272 271 269 267 265 264 263 263 262 261 259 258 257 257 257 257 257 257 256 256 255 254 253 252 250
295 294 294 293 292 290 289 287 286 285 284 282 281 279 277 276 275 274 273 272 270 268 267 265 264 263 262 260 259 258 257 256 256 255 255 256 256 255 255 254 253 251
294 293 293 292 291 290 289 288 286 285 284 282 281 279 278 277 276 275 274 273 272 270 269 267 266 265 264 262 261 259 258 256 256 255 254 254 254 254 254 254 253 252
293 292 292 291 291 290 288 287 286 285 284 282 281 280 278 277 276 275 274 273 272 271 270 269 268 267 266 264 263 261 260 258 257 255 254 253 253 253 253 253 253 252
293 292 292 291 290 289 289 288 287 285 284 283 282 281 279 278 277 276 276 274 273 272 270 269 268 267 266 265 264 263 262 260 258 257 255 254 253 252 251 251 251 251
293 292 291 291 290 289 289 288 287 286 285 285 284 283 281 280 279 278 277 276 275 273 272 270 269 268 267 266 265 264 263 262 260 258 257 255 254 252 251 251 250 250
294 292 291 290 290 289 289 288 288 288 287 286 285 284 283 282 281 280 278 277 276 274 273 272 270 269 268 267 266 265 264 263 262 260 258 256 255 253 252 251 250 249
294 293 292 291 291 291 290 290 289 288 288 287 286 285 284 284 283 281 280 278 277 275 274 273 271 270 269 268 267 266 265 264 263 262 260 258 257 255 253 252 251 249
296 295 294 294 293 293 292 291 290 290 289 289 288 287 286 285 284 283 281 279 278 276 275 273 272 271 269 268 267 266 266 265 264 263 261 260 259 257 255 254 252 250
299 299 298 297 296 295 294 293 293 292 291 290 289 288 287 286 285 283 282 280 278 277 275 274 273 271 270 269 267 266 265 265 264 263 262 261 260 259 257 256 254 252
303 302 301 299 298 297 296 295 294 293 292 291 290 288 287 286 285 283 282 280 279 277 276 274 273 272 270 269 268 267 266 264 263 263 262 262 261 260 259 257 256 255
305 303 302 301 300 299 298 297 296 295 294 292 291 290 288 287 285 284 282 281 279 277 276 274 273 271 270 269 268 267 266 265 264 262 262 262 261 261 260 259 257 256
306 305 303 303 302 301 300 299 298 297 296 295 294 292 291 289 287 285 283 281 279 278 276 274 273 271 270 269 268 267 267 266 264 263 262 262 261 261 261 260 259 258
308 307 306 305 304 304 303 302 301 300 299 298 297 296 294 292 290 287 284 282 280 278 276 275 273 272 271 269 268 267 266 265 265 264 263 263 262 262 261 261 260 259
310 310 310 309 308 307 306 305 304 303 303 302 301 299 298 296 293 290 286 284 281 278 276 275 273 272 271 270 269 268 267 266 265 265 264 264 263 262 261 260 259 259
313 313 312 311 310 309 308 307 306 306 306 306 305 304 303 301 298 294 291 287 284 280 278 276 274 273 272 271 271 270 269 268 268 267 266 265 263 262 260 259 258 258
315 315 314 312 311 310 309 308 308 308 309 310 310 308 307 306 304 300 296 292 288 284 281 278 276 275 275 275 274 273 272 271 271 269 267 265 262 260 259 258 257 257
317 316 314 313 312 311 310 309 310 311 312 312 313 312 311 310 309 306 301 297 293 289 285 282 280 279 279 278 277 275 275 274 273 270 267 264 262 260 258 257 257 256
318 317 316 315 314 312 312 312 313 313 313 313 314 315 314 314 314 312 308 304 300 296 292 289 287 286 284 282 279 279 278 275 272 268 265 263 261 259 258 257 256 256
319 319 318 317 316 315 316 317 317 316 316 317 317 317 318 318 318 317 314 311 308 305 301 298 296 293 290 285 282 281 278 273 269 267 265 263 262 261 260 259 258 257
Height
5455 5452 5450 5448 5445 5442 5440 5438 5436 5434 5432 5430 5429 5428 5427 5426 5426 5426 5426 5426 5427 5427 5427 5428 5428 5429 5431 5432 5434 5436 5438 5440 5441 5443 5446 5448 5450 5453 5456 5458 5460 5463
5442 5438 5436 5433 5431 5428 5426 5423 5422 5419 5417 5415 5414 5413 5412 5411 5410 5410 5410 5410 5411 5412 5412 5412 5413 5413 5414 5416 5417 5420 5422 5424 5426 5429 5432 5434 5435 5438 5441 5444 5447 5449
5428 5424 5421 5418 5415 5413 5410 5408 5406 5403 5401 5399 5398 5397 5397 5396 5395 5394 5394 5394 5395 5396 5397 5397 5397 5398 5398 5399 5401 5403 5405 5408 5410 5413 5416 5419 5421 5424 5426 5429 5433 5436
5414 5410 5406 5403 5399 5396 5393 5391 5389 5386 5383 5382 5381 5380 5380 5380 5379 5379 5378 5379 5379 5380 5381 5382 5382 5383 5384 5384 5385 5387 5388 5391 5393 5396 5400 5403 5406 5409 5412 5414 5418 5421
5399 5395 5391 5387 5384 5381 5377 5375 5373 5369 5367 5365 5364 5364 5363 5362 5361 5361 5362 5363 5363 5364 5365 5365 5366 5368 5369 5370 5371 5372 5374 5375 5377 5380 5383 5386 5389 5392 5396 5399 5403 5406
5383 5379 5375 5372 5368 5365 5362 5360 5357 5354 5352 5351 5350 5349 5348 5346 5345 5344 5345 5346 5348 5348 5348 5349 5350 5351 5353 5355 5357 5359 5360 5361 5363 5365 5367 5370 5372 5375 5379 5382 5387 5391
5367 5363 5360 5356 5354 5351 5349 5346 5344 5341 5339 5338 5337 5336 5333 5331 5330 5330 5330 5331 5332 5332 5333 5333 5333 5335 5336 5339 5342 5344 5346 5348 5349 5351 5353 5355 5357 5359 5362 5365 5370 5375
5353 5349 5346 5342 5340 5338 5336 5334 5332 5330 5327 5325 5325 5323 5320 5318 5318 5318 5318 5318 5318 5318 5318 5318 5318 5319 5320 5322 5325 5328 5331 5333 5335 5337 5339 5341 5343 5345 5347 5349 5353 5358
5341 5337 5333 5330 5328 5326 5324 5322 5320 5318 5315 5313 5312 5311 5308 5307 5306 5306 5307 5306 5305 5305 5305 5305 5305 5305 5306 5307 5309 5311 5314 5317 5319 5321 5324 5327 5329 5331 5332 5335 5339 5343
5330 5326 5322 5319 5316 5314 5312 5310 5308 5306 5304 5302 5300 5298 5297 5295 5295 5295 5295 5294 5293 5292 5293 5293 5293 5293 5293 5293 5293 5295 5297 5300 5302 5305 5308 5311 5315 5317 5318 5321 5325 5329
5319 5315 5311 5308 5305 5303 5300 5298 5296 5294 5292 5290 5289 5287 5285 5284 5283 5283 5284 5282 5281 5281 5281 5281 5281 5281 5280 5280 5280 5280 5282 5285 5287 5290 5293 5296 5300 5302 5304 5307 5311 5316
5309 5305 5301 5298 5295 5292 5290 5288 5285 5283 5281 5280 5278 5276 5274 5273 5272 5272 5272 5271 5270 5270 5270 5270 5269 5269 5269 5268 5268 5267 5269 5271 5273 5275 5278 5281 5285 5287 5289 5293 5298 5302
5299 5295 5291 5288 5285 5283 5281 5278 5276 5273 5271 5269 5268 5266 5264 5263 5261 5261 5260 5260 5259 5259 5258 5258 5258 5258 5257 5257 5256 5256 5256 5258 5260 5262 5264 5267 5270 5272 5275 5279 5284 5287
5289 5285 5282 5279 5276 5274 5272 5270 5267 5265 5262 5260 5259 5257 5255 5253 5252 5250 5249 5249 5248 5248 5247 5247 5247 5247 5246 5246 5245 5245 5245 5246 5248 5249 5251 5254 5256 5259 5262 5265 5269 5272
5279 5277 5274 5271 5269 5266 5264 5262 5259 5257 5254 5252 5250 5248 5246 5244 5242 5241 5239 5238 5238 5237 5237 5236 5236 5236 5236 5235 5235 5234 5234 5235 5237 5237 5239 5241 5244 5246 5249 5252 5254 5258
5272 5269 5267 5264 5261 5259 5257 5254 5252 5249 5247 5244 5241 5239 5237 5235 5233 5231 5229 5228 5227 5227 5226 5225 5225 5225 5225 5224 5224 5224 5224 5225 5226 5226 5227 5230 5232 5235 5237 5239 5241 5244
5266 5263 5260 5257 5255 5252 5249 5247 5244 5241 5239 5236 5233 5230 5228 5225 5223 5220 5218 5217 5216 5215 5215 5215 5214 5214 5214 5213 5213 5213 5213 5214 5215 5217 5218 5219 5221 5223 5225 5227 5229 5231
5259 5257 5254 5251 5248 5245 5242 5239 5236 5233 5230 5227 5224 5221 5218 5215 5212 5209 5207 5205 5204 5203 5203 5203 5203 5203 5202 5202 5202 5202 5202 5202 5204 5207 5209 5210 5211 5212 5213 5215 5217 5219
5253 5250 5247 5244 5241 5238 5234 5231 5228 5224 5221 5218 5215 5211 5208 5204 5201 5198 5196 5194 5192 5191 5191 5191 5191 5191 5191 5191 5191 5191 5191 5191 5193 5196 5198 5199 5201 5202 5203 5204 5206 5208
5247 5244 5240 5237 5234 5230 5227 5223 5220 5216 5213 5209 5206 5202 5198 5194 5191 5187 5185 5182 5181 5180 5180 5181 5180 5180 5180 5180 5180 5181 5180 5180 5183 5185 5187 5189 5191 5192 5193 5194 5195 5196
5241 5237 5234 5230 5227 5223 5220 5216 5212 5209 5205 5201 5197 5193 5189 5185 5181 5177 5174 5172 5170 5170 5170 5171 5170 5170 5170 5170 5171 5171 5170 5171 5174 5176 5177 5179 5181 5182 5183 5184 5184 5185
5235 5231 5228 5224 5220 5217 5213 5210 5206 5202 5198 5194 5190 5185 5181 5176 5172 5169 5166 5164 5162 5162 5162 5163 5162 5162 5162 5163 5163 5163 5162 5164 5166 5168 5169 5171 5172 5172 5173 5173 5174 5176
5229 5226 5223 5219 5215 5211 5207 5204 5200 5196 5192 5188 5184 5179 5174 5170 5166 5162 5160 5158 5157 5156 5156 5156 5155 5155 5156 5157 5157 5155 5155 5157 5159 5160 5161 5162 5162 5162 5163 5163 5165 5167
5225 5221 5218 5214 5210 5206 5202 5198 5195 5191 5187 5183 5179 5174 5170 5165 5162 5158 5155 5153 5152 5151 5151 5151 5150 5150 5151 5151 5150 5149 5150 5151 5152 5152 5152 5153 5153 5153 5154 5156 5158 5160
5220 5216 5213 5209 5205 5201 5197 5194 5190 5186 5182 5178 5174 5171 5167 5162 5159 5156 5153 5150 5149 5148 5147 5147 5146 5146 5146 5146 5145 5145 5145 5146 5145 5145 5145 5145 5146 5146 5148 5149 5152 5153
5216 5212 5208 5204 5200 5197 5193 5189 5186 5182 5178 5175 5171 5167 5164 5160 5157 5154 5152 5149 5147 5146 5145 5144 5143 5143 5143 5142 5141 5141 5141 5141 5140 5140 5140 5141 5141 5142 5143 5145 5147 5148